Miscellaneous Local Product
Issued by NWS Hastings, NE

Home | Current Version | Previous Version | Graphics & Text | Print | Product List | Glossary On
Versions: 1 2 3 4 5 6 7 8 9 10 11 12 13 14 15 16 17 18 19 20 21 22 23 24 25 26 27 28 29 30 31 32 33 34 35 36 37 38 39 40 41 42 43 44 45 46 47 48 49 50
000
AXUS43 KGID 262202
MISGRI

GID CWA HOURLY WEATHER ROUNDUP
NATIONAL WEATHER SERVICE HASTINGS NE
500 PM CDT FRI AUG 26 2016

NOTE: "FAIR" INDICATES FEW OR NO CLOUDS BELOW 12,000 FEET WITH NO
SIGNIFICANT WEATHER AND/OR OBSTRUCTIONS TO VISIBILITY.

...SOUTH CENTRAL NEBRASKA...

CITY           SKY/WX    TMP DP  RH WIND       PRES   REMARKS
GRAND ISLAND   CLOUDY    70  60  70 E9        30.06F
HASTINGS       CLOUDY    69  62  78 SE10      30.06S
KEARNEY        CLOUDY    72  55  56 E7        30.05F
ORD            CLOUDY    72  55  55 E10       30.06F
YORK           CLOUDY    64  63  94 E7        30.06F FOG
AURORA         CLOUDY    65  65  97 E7        30.06F FOG
LEXINGTON      CLOUDY    72  57  59 E9        30.07S
HOLDREGE       PTSUNNY   73  57  58 E5        30.06F
HEBRON         PTSUNNY   72  65  80 CALM      30.03F

...NEBRASKA PANHANDLE...

CITY           SKY/WX    TMP DP  RH WIND       PRES   REMARKS
CHADRON        MOSUNNY   71  53  52 S5        30.01F
ALLIANCE       SUNNY     69  49  48 SE10      30.06F
SCOTTSBLUFF    CLOUDY    68  53  58 SE15      30.06R
SIDNEY         CLOUDY    68  57  68 SE9       30.09R

...WESTERN AND NORTH CENTRAL NEBRASKA...

CITY           SKY/WX    TMP DP  RH WIND       PRES   REMARKS
VALENTINE      LGT RAIN  61  58  90 E13       30.08F
AINSWORTH      LGT RAIN  69  56  63 SE3       30.09F
ONEILL         CLOUDY    74  52  46 E8        30.09F
BROKEN BOW     CLOUDY    69  57  65 E7        30.07F
IMPERIAL       LGT RAIN  62  59  90 NE9       30.08R FOG
NORTH PLATTE   LGT RAIN  67  59  75 S5        30.09R
MCCOOK         LGT RAIN  70  59  68 N7        30.05F

...EASTERN NEBRASKA...

CITY           SKY/WX    TMP DP  RH WIND       PRES   REMARKS
NORFOLK        CLOUDY    71  58  63 E9        30.07F
SO SIOUX CITY  CLOUDY    73  62  68 SE7       30.09F
TEKAMAH        LGT RAIN  68  60  75 SE7       30.09S
COLUMBUS       CLOUDY    66  55  68 E8        30.08S
ALBION         CLOUDY    71  59  67 E7        30.07F
OMAHA EPPLEY   CLOUDY    71  61  70 SE7       30.07S
OFFUTT AFB     CLOUDY    71  63  77 NE6       30.05F
MILLARD        CLOUDY    71  62  72 SE6       30.06S
LINCOLN        CLOUDY    70  64  81 NE7       30.06F
NEBRASKA CITY  RAIN      68  68 100 NE6       30.04F
BEATRICE       CLOUDY    71  66  84 E6        30.03F
FALLS CITY     CLOUDY    74  69  85 E8        30.01F

...NORTHERN KANSAS...

CITY           SKY/WX    TMP DP  RH WIND       PRES   REMARKS
GOODLAND       CLOUDY    71  61  70 SE12      30.03F
HILL CITY      PTSUNNY   75  64  68 E10       30.04S
NORTON         MOCLDY    75  54  46 E8        30.04R
SMITH CENTER   CLOUDY    72  63  73 E7        30.04F
BELOIT         CLOUDY    72  64  78 S3        30.01F
HAYS           MOSUNNY   73  59  60 SE3       30.02F
RUSSELL        PTSUNNY   74  66  76 CALM      30.01F
CONCORDIA      MOSUNNY   74  66  76 VRB6      30.02F
SALINA         PTSUNNY   80  67  64 SW5       30.01F
TOPEKA         CLOUDY    74  70  87 NW9       29.98F



USA.gov is the U.S. government's official web portal to all federal, state and local government web resources and services.